Theta_e
306 304 306 307 306 308 309 309 308 307 309 309 309 309 309 310 310 310 310 311 312 312 312 313 313 314 316 319 324 333 336 331 335 342 341 335 331 335 335 334 334 336 333 332
304 305 306 307 307 307 307 307 310 309 309 310 308 309 309 309 309 310 311 311 312 312 312 312 313 313 314 315 319 322 329 337 337 335 342 342 339 336 337 335 335 334 335 334
305 307 307 308 308 309 309 310 311 311 310 309 308 306 308 309 310 310 311 311 311 311 312 312 312 312 313 314 315 317 320 326 334 339 339 340 338 336 336 337 336 336 335 335
306 307 308 307 308 309 309 310 311 309 308 308 309 308 307 307 307 308 310 310 311 311 312 312 312 312 312 313 314 315 316 319 324 331 337 331 332 333 332 332 335 334 335 335
307 308 308 308 308 309 307 310 310 309 308 309 309 308 307 307 307 306 306 310 310 312 313 313 313 314 314 314 314 315 315 316 319 322 323 325 325 330 334 333 332 332 334 336
306 308 307 307 310 309 308 308 305 305 306 308 307 308 307 308 308 308 309 311 312 312 312 311 311 312 312 314 314 315 315 316 317 321 323 324 327 325 328 327 328 330 331 335
306 306 310 310 309 307 305 304 305 306 305 308 308 307 307 308 308 308 310 312 312 312 312 311 311 311 311 312 313 314 315 315 317 319 323 325 325 326 325 329 329 329 333 333
307 309 309 310 309 308 307 305 303 306 309 306 307 308 307 308 310 312 312 312 312 312 312 311 311 312 312 312 312 314 316 316 316 317 321 324 324 326 328 330 331 330 337 333
310 311 309 309 308 308 308 307 305 303 306 309 307 307 308 308 308 311 311 311 311 312 312 312 312 314 315 314 312 312 318 317 317 317 318 321 325 326 328 333 334 334 336 329
308 310 309 309 309 308 307 306 306 304 310 312 309 308 309 309 309 309 308 309 311 311 311 311 312 313 314 313 314 313 318 318 318 319 318 320 322 324 326 331 333 333 333 330
309 308 309 310 309 307 307 307 308 305 307 313 311 309 307 307 306 308 308 310 309 310 311 311 312 314 315 314 315 315 316 318 318 319 319 321 321 321 322 326 330 332 331 328
309 306 310 310 308 308 306 307 307 307 307 311 304 311 310 307 307 308 307 308 312 312 311 310 315 316 318 319 315 315 314 317 320 320 320 321 322 322 321 322 326 330 328 326
308 307 309 307 307 307 310 310 310 311 312 313 313 310 307 307 308 309 308 310 311 311 311 313 314 316 318 319 323 319 320 321 322 323 325 323 322 322 322 322 323 327 325 328
310 305 308 307 307 306 308 309 309 311 313 312 312 310 309 309 309 308 309 310 309 309 309 315 314 313 316 316 320 324 320 321 323 326 330 325 322 322 323 323 323 325 326 332
307 310 309 309 310 310 310 310 311 311 312 314 311 310 310 309 309 309 309 309 308 308 309 315 314 312 314 314 319 324 323 325 325 329 331 325 323 323 323 323 323 330 335 335
307 307 309 308 309 309 310 310 310 311 311 312 312 313 311 310 309 309 309 308 308 308 309 312 311 312 311 312 317 322 322 329 328 333 333 325 325 324 324 328 335 336 333 334
307 306 308 310 310 309 310 310 311 312 313 313 313 311 309 310 310 309 308 308 308 308 310 309 311 312 312 313 318 322 323 328 336 335 333 326 327 330 333 335 335 335 339 343
305 307 310 311 307 311 309 312 312 312 312 312 310 309 310 309 308 308 307 307 307 308 308 309 311 312 314 317 321 323 324 328 339 335 339 331 335 334 335 338 338 341 340 340
304 308 311 313 311 308 309 312 312 311 311 310 310 310 307 307 307 308 308 308 308 308 308 308 311 313 315 316 321 321 326 328 338 337 337 336 335 337 340 339 342 339 340 335
306 307 312 311 311 311 307 311 310 310 313 310 308 309 309 308 306 307 308 308 308 308 309 310 312 313 314 320 322 321 325 327 332 337 337 336 336 338 339 339 339 338 333 332
311 310 312 309 310 309 308 310 309 314 311 308 310 309 308 308 308 308 308 308 308 309 310 311 312 313 315 321 322 322 326 326 329 335 334 334 337 337 338 338 336 334 332 330
303 305 303 307 307 306 310 309 311 310 309 309 309 307 307 307 309 308 307 308 309 310 310 311 312 315 319 321 321 322 326 327 327 332 335 335 336 337 337 334 333 331 328 328
303 305 308 308 304 305 309 310 310 310 310 308 306 306 306 309 307 308 308 309 310 310 311 312 314 317 320 321 322 324 327 328 327 329 334 335 336 335 330 329 326 327 330 329
306 304 304 307 307 308 309 310 310 310 309 305 306 306 308 307 307 308 309 309 310 311 313 316 318 320 322 323 322 326 327 330 329 330 332 335 332 329 328 325 329 331 329 327
305 305 305 306 308 309 310 310 310 306 305 306 306 306 306 307 307 307 308 308 310 311 314 317 321 324 325 327 325 326 326 328 326 331 332 329 327 325 327 329 329 327 326 326
305 306 310 310 308 310 310 310 306 305 305 305 305 305 306 306 306 306 307 309 310 313 319 324 323 326 329 324 326 327 327 329 329 329 328 326 326 328 329 328 328 327 327 327
Wind_Speed
4 5 2 5 6 4 2 3 3 4 4 7 9 12 11 10 11 15 12 15 17 13 14 10 10 10 9 18 22 28 28 24 24 26 37 45 46 43 48 37 49 53 43 48
5 2 6 3 3 3 4 3 2 4 5 5 8 20 16 8 6 6 12 19 19 19 13 17 13 12 12 11 17 25 31 33 29 27 32 42 44 43 46 42 44 51 46 44
4 4 3 2 1 2 1 3 2 5 4 4 7 9 3 2 7 17 18 19 19 14 19 18 20 19 17 16 15 16 28 34 37 37 35 41 43 42 39 44 48 50 50 48
4 3 0 2 2 4 1 4 2 4 6 3 5 7 4 3 4 5 19 21 19 18 20 23 21 19 19 20 19 18 18 26 39 41 45 45 49 54 57 54 52 50 50 42
6 2 2 1 3 4 5 2 2 3 2 2 4 3 6 8 6 5 7 16 18 14 11 13 16 18 19 20 20 20 20 21 25 41 48 52 51 46 40 40 47 48 50 42
7 3 3 6 2 1 3 3 4 4 2 1 5 4 4 2 2 7 13 17 15 15 16 16 16 18 21 21 22 22 23 23 22 27 39 43 46 44 44 45 49 50 48 34
2 2 1 2 2 3 4 6 4 5 3 4 4 4 11 9 16 7 9 16 16 17 21 22 24 25 24 25 23 24 25 27 23 23 32 38 44 39 40 45 47 48 41 29
4 3 3 1 3 5 2 6 4 5 3 5 1 7 7 6 9 12 15 18 20 21 25 29 34 34 33 32 29 25 25 27 25 24 26 36 40 43 43 40 44 41 37 30
3 4 3 2 4 6 2 3 3 2 2 2 5 6 11 15 12 10 16 18 21 25 34 36 35 35 33 34 31 28 25 28 27 27 25 29 30 32 38 34 33 31 30 31
4 3 4 3 0 2 5 6 2 3 2 5 5 6 11 9 10 9 9 13 28 37 39 37 32 31 33 37 32 29 23 28 29 28 27 27 31 28 26 28 29 31 33 34
2 3 4 1 4 7 1 2 2 3 4 4 6 9 5 9 9 7 9 20 27 36 41 34 33 39 39 32 28 27 24 25 29 30 28 28 30 32 33 33 33 33 35 33
3 4 4 9 6 2 6 6 5 4 4 5 4 15 3 8 4 6 14 20 28 32 31 26 30 37 38 34 24 25 25 25 26 30 29 30 29 32 34 37 36 35 31 28
4 1 3 7 4 3 2 4 3 1 3 15 9 10 5 7 11 25 24 23 26 32 31 29 30 32 36 38 32 24 20 22 23 26 28 30 31 30 29 28 31 32 28 24
6 5 7 7 6 3 8 13 14 13 5 9 13 25 19 18 17 12 17 22 28 29 29 27 31 37 33 46 37 27 29 23 23 24 26 29 29 32 29 28 27 29 27 27
7 6 5 10 14 13 17 19 17 15 18 13 21 18 24 20 15 8 17 22 26 30 30 25 27 33 39 48 42 31 30 25 25 25 27 28 28 26 24 25 26 27 27 25
1 2 2 6 12 12 13 15 14 16 17 18 18 20 19 16 15 15 16 22 26 30 28 25 34 29 42 48 46 31 29 27 25 27 29 27 25 26 25 26 28 28 26 25
4 2 4 5 3 7 9 8 6 4 5 5 9 12 14 11 14 18 20 24 28 29 23 32 32 31 37 45 43 31 30 23 21 24 26 29 28 28 29 30 28 27 27 25
5 4 2 5 4 4 4 4 3 5 10 10 10 13 12 15 29 33 30 31 28 25 36 39 36 31 28 36 34 32 27 18 18 22 26 26 27 27 27 28 28 29 30 32
9 5 3 3 3 7 7 1 2 1 11 11 12 7 16 23 32 30 20 19 27 37 40 38 39 34 32 33 26 25 21 16 12 22 24 29 28 29 30 32 35 34 34 34
8 8 3 2 3 4 5 2 5 4 12 4 7 16 19 25 16 15 25 30 38 41 37 37 38 37 34 25 19 26 21 18 18 19 22 23 24 28 32 36 36 38 34 32
3 3 8 6 5 7 2 3 6 5 5 15 26 24 27 17 18 36 34 40 38 38 40 39 39 39 34 28 23 24 22 24 24 17 23 24 28 30 34 38 38 36 34 28
3 3 3 2 2 7 5 5 2 7 29 29 29 29 30 33 31 36 37 34 35 36 36 38 38 37 29 25 24 21 18 15 24 22 24 28 28 36 38 37 36 32 30 29
2 5 2 6 6 4 14 11 29 30 23 28 29 33 31 29 36 36 34 34 35 37 40 39 36 37 24 21 17 17 17 12 29 23 31 31 35 37 37 33 34 31 30 28
4 3 3 3 4 7 18 29 28 26 28 30 31 34 28 31 37 34 34 36 38 42 42 36 33 33 30 20 14 10 16 18 33 32 25 40 44 39 33 32 32 32 28 23
7 2 4 6 14 19 20 26 28 28 31 35 30 28 34 31 31 32 35 39 40 41 38 34 32 29 30 19 17 19 17 20 35 39 47 46 38 36 37 35 31 25 18 16
2 3 2 4 23 19 23 31 26 30 31 31 35 34 29 27 31 34 36 37 38 37 34 26 16 12 29 26 31 24 22 31 43 48 44 38 38 38 34 32 28 20 16 14
Wind_Direction
21 70 184 227 199 199 200 192 232 275 314 0 302 291 292 273 279 284 302 319 312 305 322 321 319 307 298 251 255 258 254 258 258 247 227 226 226 217 234 248 250 248 251 252
23 205 213 245 192 186 168 164 248 290 278 321 276 284 288 259 229 228 304 303 296 296 307 315 304 291 284 282 253 245 256 251 250 251 244 234 220 228 247 240 240 238 255 253
165 233 183 189 87 89 306 160 249 235 288 259 324 290 128 248 261 280 289 291 281 285 306 311 309 294 279 279 275 257 246 246 250 242 239 240 234 236 236 234 244 251 253 254
234 269 10 325 256 138 314 205 236 306 17 312 54 288 307 272 290 286 286 289 272 294 297 297 305 298 284 278 276 268 261 247 239 241 241 243 248 249 250 255 264 261 256 257
252 216 206 133 224 179 223 166 288 269 262 40 291 289 265 351 282 292 288 310 294 285 292 306 306 305 294 290 285 284 272 263 252 239 239 244 249 252 249 253 258 261 256 261
246 240 206 193 131 59 56 20 19 45 84 26 248 186 255 254 195 308 302 300 292 308 309 314 312 310 304 291 290 290 281 269 269 254 242 241 244 248 246 250 253 253 257 258
289 210 67 107 89 8 78 54 344 340 357 229 190 294 257 271 288 268 269 290 308 314 323 320 323 325 315 308 298 291 289 272 265 263 240 239 245 240 253 252 253 252 249 236
172 287 147 101 186 200 202 150 160 243 234 243 19 248 254 240 247 248 258 274 298 302 319 323 323 322 319 313 301 290 285 281 267 263 250 234 239 246 249 256 251 247 243 241
162 267 297 213 191 135 163 188 196 143 266 340 225 286 291 279 257 258 263 278 292 311 316 318 325 330 326 317 300 286 284 283 277 264 263 245 232 246 250 255 251 245 235 235
198 292 241 269 39 259 164 166 67 9 292 258 265 259 239 299 282 261 280 305 315 316 318 310 320 329 326 317 299 279 277 281 279 271 262 256 233 231 247 251 244 234 229 236
128 153 286 337 213 207 268 216 92 149 172 237 301 264 197 245 265 288 294 312 315 316 313 308 313 324 327 316 304 274 279 275 272 269 263 261 238 234 238 243 246 235 235 240
187 164 232 233 247 225 180 207 163 151 237 226 214 264 210 253 326 303 298 321 331 334 326 318 320 326 326 319 306 292 280 273 266 264 258 258 241 232 236 238 243 239 237 240
188 218 322 324 5 340 173 179 174 298 247 253 254 264 17 328 306 311 317 322 326 327 331 321 314 316 326 325 316 292 283 279 264 253 251 250 236 229 234 235 237 237 237 225
177 188 187 221 237 182 278 267 267 262 253 280 240 280 284 287 284 299 305 317 321 320 317 308 310 310 314 325 317 315 304 282 259 248 245 239 225 235 228 226 230 227 220 208
161 231 216 255 268 267 261 264 262 245 249 252 282 282 290 288 287 275 300 307 309 312 312 297 306 314 312 312 317 310 305 280 248 241 232 222 216 217 217 216 218 207 199 200
132 275 270 275 257 258 262 255 245 249 250 254 262 267 268 275 302 293 289 305 306 301 298 296 303 312 305 306 314 300 303 292 247 229 220 205 205 204 206 202 191 189 195 196
171 189 306 268 332 318 280 270 202 218 241 213 245 274 315 296 289 287 293 298 292 292 289 302 307 305 300 304 312 300 301 294 239 233 204 195 198 191 187 184 186 187 184 183
177 170 200 285 358 250 250 211 237 242 274 268 280 294 297 304 306 298 299 289 286 290 301 301 305 300 286 292 305 303 299 276 227 217 196 183 177 178 184 186 180 178 173 171
208 188 255 264 223 290 287 83 218 145 283 289 269 296 309 305 306 292 297 300 291 299 298 296 300 304 305 301 296 305 286 263 196 192 184 173 177 185 183 178 173 172 166 161
161 201 255 327 280 271 245 151 80 356 282 87 333 306 299 300 300 302 309 302 301 301 303 300 300 299 298 288 297 298 276 246 201 188 180 183 185 187 183 179 170 158 161 161
157 215 233 252 252 271 314 128 350 264 314 285 305 304 302 295 292 298 306 302 302 303 302 303 300 297 294 287 284 284 262 229 202 184 192 190 186 185 183 168 157 157 162 161
193 181 237 262 260 277 185 328 236 276 287 297 302 300 295 300 299 309 304 301 299 298 297 294 294 297 298 283 292 264 247 212 188 185 188 182 176 161 154 150 152 162 164 163
284 193 224 201 232 231 303 279 300 289 288 296 297 304 303 303 309 307 306 304 300 297 298 300 296 297 288 288 271 224 216 171 173 174 172 160 155 155 152 155 160 163 166 165
282 170 228 350 278 257 307 307 307 312 302 311 314 320 306 310 308 306 310 306 304 307 308 307 301 294 284 273 252 209 183 143 158 166 179 152 155 155 159 158 160 162 163 167
252 225 237 254 277 290 284 305 318 321 323 312 313 315 308 305 307 309 307 307 308 308 309 305 303 305 290 230 182 175 168 163 152 170 159 161 155 158 159 159 161 162 160 171
251 261 269 277 293 293 299 315 326 320 318 321 311 315 316 313 310 313 313 314 314 314 311 295 285 334 103 124 124 135 159 168 164 157 157 157 156 158 158 157 152 157 159 157